Regional Weather Roundup
Issued by NWS State College, PA

Home | Current Version | Previous Version | Text Only | Print | Product List | Glossary Off
Versions: 1 2 3 4 5 6 7 8 9 10 11 12 13 14 15 16 17 18 19 20 21 22 23 24 25 26 27 28 29 30 31 32 33 34 35 36 37 38 39 40 41 42 43 44 45 46 47 48 49 50

000
ASUS41 KCTP 231403
RWRCTP

REGIONAL WEATHER ROUNDUP
NATIONAL WEATHER SERVICE STATE COLLEGE PA
1000 AM EDT SAT MAY 23 2015

Note: "fair" indicates few or no clouds below 12,000 feet with no
significant weather and/or obstructions to visibility.

* = STATION THAT DOES NOT REPORT PRECIPITATION /E.G. RAIN...SNOW...ETC/
    THUNDER OR FOG.

PAZ002>004-007>009-013>016-020>023-029>032-231500-
WESTERN PENNSYLVANIA

CITY           SKY/WX    TMP DP  RH WIND       PRES   REMARKS
ERIE           SUNNY     57  25  29 SW7       30.45R
MEADVILLE      SUNNY     53  31  42 S7        30.44S
FRANKLIN*      SUNNY     52  27  37 S6        30.47S
NEW CASTLE     FAIR      57  34  42 CALM      30.47R
BEAVER COUNTY  SUNNY     57  30  35 S7        30.45R
BUTLER*        SUNNY     55  28  35 SW6       30.48R
PITTSBURGH INT MOSUNNY   56  29  35 VRB3      30.45R
PITTSBURGH     SUNNY     55  29  36 SE6       30.45R
INDIANA*       SUNNY     52  28  40 CALM      30.50R
LATROBE        MOSUNNY   54  28  37 CALM      30.48R
WASHINGTON CO* SUNNY     57  34  41 CALM      30.47R
$$

PAZ004>006-010>012-017>019-024>028-033>037-041-042-045-046-049>053-231500-
CENTRAL PENNSYLVANIA

CITY           SKY/WX    TMP DP  RH WIND       PRES   REMARKS
BRADFORD       SUNNY     49  18  29 W7        30.43R
DUBOIS         SUNNY     53  26  35 VRB5      30.44R
CLEARFIELD     SUNNY     49  27  42 S6        30.45S
JOHNSTOWN      SUNNY     51  26  37 MISG      30.44R
ALTOONA        SUNNY     52  25  35 W6        30.46R
STATE COLLEGE  SUNNY     50  27  40 W6        30.46S
WILLIAMSPORT   SUNNY     51  28  41 W5        30.45F
SELINSGROVE    SUNNY     53  27  36 NW5       30.47S
FT INDIANTOWN  SUNNY     55  24  30 N8        30.45S
CAPITAL CITY   SUNNY     55  27  34 N7        30.47R
HARRISBURG     MOSUNNY   56  28  34 W7        30.45S
YORK           SUNNY     56  28  34 N8        30.46R
$$

PAZ038>040-043-044-047-048-054-055-060>062-067>071-231500-
EASTERN PENNSYLVANIA

CITY           SKY/WX    TMP DP  RH WIND       PRES   REMARKS
SCRANTON       SUNNY     50  25  37 NW8       30.44R
MOUNT POCONO   SUNNY     46  21  37 NW8       30.40R
ALLENTOWN      SUNNY     52  27  38 NW6       30.45S
QUAKERTOWN*    SUNNY     52  25  35 NE7       30.46S
READING        SUNNY     54  26  34 N8        30.45S
LANCASTER      SUNNY     55  29  36 NW8       30.45S
COATESVILLE    SUNNY     54  28  37 NW8       30.46R
POTTSTOWN      SUNNY     53  25  33 N9        30.47R
BLUE BELL      SUNNY     55  27  33 N7        30.44S
DOYLESTOWN     SUNNY     53  23  31 N9        30.44S
WILLOW GROVE   NOT AVBL
NORTH PHILA    SUNNY     57  21  24 N9        30.46S
PHILADELPHIA   MOSUNNY   57  25  29 N12       30.46R
$$


USA.gov is the U.S. government's official web portal to all federal, state and local government web resources and services.